Date_Time,Julian_Date,Latitude,Longitude,Instrument_Depth,U,V,Speed,Direction
(yyyy-mm-dd hh:mn:ss UTC),(JD),(+ deg. North),(+ deg. East),(m),(cm/s),(cm/s),(cm/s),(deg True)
1983-06-01 22:00:00 UTC,2445487.416667,29.5267,-94.1772,0094,-9.14,4.07,10.0000,294.0000
1983-06-01 22:30:00 UTC,2445487.437500,29.5267,-94.1772,0094,-8.91,4.54,10.0000,297.0000
1983-06-01 23:00:00 UTC,2445487.458333,29.5267,-94.1772,0094,-9.71,5.16,11.0000,298.0000
1983-06-01 23:30:00 UTC,2445487.479167,29.5267,-94.1772,0094,-9.71,5.16,11.0000,298.0000
1983-06-02 00:00:00 UTC,2445487.500000,29.5267,-94.1772,0094,-8.83,4.69,10.0000,298.0000
1983-06-02 00:30:00 UTC,2445487.520833,29.5267,-94.1772,0094,-7.95,4.23,9.0000,298.0000
1983-06-02 01:00:00 UTC,2445487.541667,29.5267,-94.1772,0094,-7.06,3.76,8.0000,298.0000
1983-06-02 01:30:00 UTC,2445487.562500,29.5267,-94.1772,0094,-7.06,3.76,8.0000,298.0000
1983-06-02 02:00:00 UTC,2445487.583333,29.5267,-94.1772,0094,-6.18,3.29,7.0000,298.0000
1983-06-02 02:30:00 UTC,2445487.604167,29.5267,-94.1772,0094,-6.18,3.29,7.0000,298.0000
1983-06-02 03:00:00 UTC,2445487.625000,29.5267,-94.1772,0094,-6.18,3.29,7.0000,298.0000
1983-06-02 03:30:00 UTC,2445487.645833,29.5267,-94.1772,0094,-6.18,3.29,7.0000,298.0000
1983-06-02 04:00:00 UTC,2445487.666667,29.5267,-94.1772,0094,-7.06,3.76,8.0000,298.0000
1983-06-02 04:30:00 UTC,2445487.687500,29.5267,-94.1772,0094,-7.06,3.76,8.0000,298.0000
1983-06-02 05:00:00 UTC,2445487.708333,29.5267,-94.1772,0094,-6.18,3.29,7.0000,298.0000
1983-06-02 05:30:00 UTC,2445487.729167,29.5267,-94.1772,0094,-6.18,3.29,7.0000,298.0000
1983-06-02 06:00:00 UTC,2445487.750000,29.5267,-94.1772,0094,-5.30,2.82,6.0000,298.0000
1983-06-02 06:30:00 UTC,2445487.770833,29.5267,-94.1772,0094,-5.30,2.82,6.0000,298.0000
1983-06-02 07:00:00 UTC,2445487.791667,29.5267,-94.1772,0094,-5.30,2.82,6.0000,298.0000
1983-06-02 07:30:00 UTC,2445487.812500,29.5267,-94.1772,0094,-5.30,2.82,6.0000,298.0000
1983-06-02 08:00:00 UTC,2445487.833333,29.5267,-94.1772,0094,-6.18,3.29,7.0000,298.0000
1983-06-02 08:30:00 UTC,2445487.854167,29.5267,-94.1772,0094,-7.06,3.76,8.0000,298.0000
1983-06-02 09:00:00 UTC,2445487.875000,29.5267,-94.1772,0094,-7.95,4.23,9.0000,298.0000
1983-06-02 09:30:00 UTC,2445487.895833,29.5267,-94.1772,0094,-7.95,4.23,9.0000,298.0000
1983-06-02 10:00:00 UTC,2445487.916667,29.5267,-94.1772,0094,-7.95,4.23,9.0000,298.0000
1983-06-02 10:30:00 UTC,2445487.937500,29.5267,-94.1772,0094,-7.06,3.76,8.0000,298.0000
1983-06-02 11:00:00 UTC,2445487.958333,29.5267,-94.1772,0094,-5.30,2.82,6.0000,298.0000
1983-06-02 11:30:00 UTC,2445487.979167,29.5267,-94.1772,0094,-5.30,2.82,6.0000,298.0000
1983-06-02 12:00:00 UTC,2445488.000000,29.5267,-94.1772,0094,-5.30,2.82,6.0000,298.0000
1983-06-02 12:30:00 UTC,2445488.020833,29.5267,-94.1772,0094,-6.18,3.29,7.0000,298.0000
1983-06-02 13:00:00 UTC,2445488.041667,29.5267,-94.1772,0094,-6.18,3.29,7.0000,298.0000
1983-06-02 13:30:00 UTC,2445488.062500,29.5267,-94.1772,0094,-7.95,4.23,9.0000,298.0000
1983-06-02 14:00:00 UTC,2445488.083333,29.5267,-94.1772,0094,-9.21,3.91,10.0000,293.0000
1983-06-02 14:30:00 UTC,2445488.104167,29.5267,-94.1772,0094,-11.00,0.19,11.0000,271.0000
1983-06-02 15:00:00 UTC,2445488.125000,29.5267,-94.1772,0094,-13.07,-5.02,14.0000,249.0000
1983-06-02 15:30:00 UTC,2445488.145833,29.5267,-94.1772,0094,-15.76,-6.37,17.0000,248.0000
1983-06-02 16:00:00 UTC,2445488.166667,29.5267,-94.1772,0094,-16.50,-4.11,17.0000,256.0000
1983-06-02 16:30:00 UTC,2445488.187500,29.5267,-94.1772,0094,-15.94,-1.39,16.0000,265.0000
1983-06-02 17:00:00 UTC,2445488.208333,29.5267,-94.1772,0094,-14.98,0.78,15.0000,273.0000
1983-06-02 17:30:00 UTC,2445488.229167,29.5267,-94.1772,0094,-13.86,1.95,14.0000,278.0000
1983-06-02 18:00:00 UTC,2445488.250000,29.5267,-94.1772,0094,-13.58,3.39,14.0000,284.0000
1983-06-02 18:30:00 UTC,2445488.270833,29.5267,-94.1772,0094,-13.07,5.02,14.0000,291.0000
1983-06-02 19:00:00 UTC,2445488.291667,29.5267,-94.1772,0094,-11.68,5.70,13.0000,296.0000
1983-06-02 19:30:00 UTC,2445488.312500,29.5267,-94.1772,0094,-10.60,5.63,12.0000,298.0000
1983-06-02 20:00:00 UTC,2445488.333333,29.5267,-94.1772,0094,-9.80,4.99,11.0000,297.0000
1983-06-02 20:30:00 UTC,2445488.354167,29.5267,-94.1772,0094,-8.91,4.54,10.0000,297.0000
1983-06-02 21:00:00 UTC,2445488.375000,29.5267,-94.1772,0094,-8.91,4.54,10.0000,297.0000
1983-06-02 21:30:00 UTC,2445488.395833,29.5267,-94.1772,0094,0.35,9.99,10.0000,2.0000
1983-06-02 22:00:00 UTC,2445488.416667,29.5267,-94.1772,0094,-8.19,5.74,10.0000,305.0000
1983-06-02 22:30:00 UTC,2445488.437500,29.5267,-94.1772,0094,-7.07,8.43,11.0000,320.0000
1983-06-02 23:00:00 UTC,2445488.458333,29.5267,-94.1772,0094,-4.50,11.13,12.0000,338.0000
1983-06-02 23:30:00 UTC,2445488.479167,29.5267,-94.1772,0094,-2.29,10.76,11.0000,348.0000
1983-06-03 00:00:00 UTC,2445488.500000,29.5267,-94.1772,0094,-1.74,9.85,10.0000,350.0000
1983-06-03 00:30:00 UTC,2445488.520833,29.5267,-94.1772,0094,-1.56,8.86,9.0000,350.0000
1983-06-03 01:00:00 UTC,2445488.541667,29.5267,-94.1772,0094,-1.56,8.86,9.0000,350.0000
1983-06-03 01:30:00 UTC,2445488.562500,29.5267,-94.1772,0094,-0.78,8.97,9.0000,355.0000
1983-06-03 02:00:00 UTC,2445488.583333,29.5267,-94.1772,0094,2.82,5.30,6.0000,28.0000
1983-06-03 02:30:00 UTC,2445488.604167,29.5267,-94.1772,0094,5.77,-1.65,6.0000,106.0000
1983-06-03 03:00:00 UTC,2445488.625000,29.5267,-94.1772,0094,6.14,-6.58,9.0000,137.0000
1983-06-03 03:30:00 UTC,2445488.645833,29.5267,-94.1772,0094,3.75,-9.27,10.0000,158.0000
1983-06-03 04:00:00 UTC,2445488.666667,29.5267,-94.1772,0094,0.84,-11.97,12.0000,176.0000
1983-06-03 04:30:00 UTC,2445488.687500,29.5267,-94.1772,0094,-0.68,-12.98,13.0000,183.0000
1983-06-03 05:00:00 UTC,2445488.708333,29.5267,-94.1772,0094,-0.73,-13.98,14.0000,183.0000
1983-06-03 05:30:00 UTC,2445488.729167,29.5267,-94.1772,0094,-1.12,-15.96,16.0000,184.0000
1983-06-03 06:00:00 UTC,2445488.750000,29.5267,-94.1772,0094,-1.78,-16.91,17.0000,186.0000
1983-06-03 06:30:00 UTC,2445488.770833,29.5267,-94.1772,0094,-3.30,-18.71,19.0000,190.0000
1983-06-03 07:00:00 UTC,2445488.791667,29.5267,-94.1772,0094,-4.72,-20.46,21.0000,193.0000
1983-06-03 07:30:00 UTC,2445488.812500,29.5267,-94.1772,0094,-6.43,-21.04,22.0000,197.0000
1983-06-03 08:00:00 UTC,2445488.833333,29.5267,-94.1772,0094,-9.76,-21.93,24.0000,204.0000
1983-06-03 08:30:00 UTC,2445488.854167,29.5267,-94.1772,0094,-12.72,-20.35,24.0000,212.0000
1983-06-03 09:00:00 UTC,2445488.875000,29.5267,-94.1772,0094,-14.78,-18.91,24.0000,218.0000
1983-06-03 09:30:00 UTC,2445488.895833,29.5267,-94.1772,0094,-17.05,-18.28,25.0000,223.0000
1983-06-03 10:00:00 UTC,2445488.916667,29.5267,-94.1772,0094,-19.32,-17.40,26.0000,228.0000
1983-06-03 10:30:00 UTC,2445488.937500,29.5267,-94.1772,0094,-21.28,-16.62,27.0000,232.0000
1983-06-03 11:00:00 UTC,2445488.958333,29.5267,-94.1772,0094,-24.59,-15.37,29.0000,238.0000
1983-06-03 11:30:00 UTC,2445488.979167,29.5267,-94.1772,0094,-26.96,-13.15,30.0000,244.0000
1983-06-03 12:00:00 UTC,2445489.000000,29.5267,-94.1772,0094,-27.42,-9.44,29.0000,251.0000
1983-06-03 12:30:00 UTC,2445489.020833,29.5267,-94.1772,0094,-26.74,-3.76,27.0000,262.0000
1983-06-03 13:00:00 UTC,2445489.041667,29.5267,-94.1772,0094,-25.98,0.91,26.0000,272.0000
1983-06-03 13:30:00 UTC,2445489.062500,29.5267,-94.1772,0094,-24.69,3.91,25.0000,279.0000
1983-06-03 14:00:00 UTC,2445489.083333,29.5267,-94.1772,0094,-23.18,6.21,24.0000,285.0000
1983-06-03 14:30:00 UTC,2445489.104167,29.5267,-94.1772,0094,-22.41,8.60,24.0000,291.0000
1983-06-03 15:00:00 UTC,2445489.125000,29.5267,-94.1772,0094,-21.19,11.27,24.0000,298.0000
1983-06-03 15:30:00 UTC,2445489.145833,29.5267,-94.1772,0094,-19.42,14.11,24.0000,306.0000
1983-06-03 16:00:00 UTC,2445489.166667,29.5267,-94.1772,0094,-17.62,14.78,23.0000,310.0000
1983-06-03 16:30:00 UTC,2445489.187500,29.5267,-94.1772,0094,-16.82,15.69,23.0000,313.0000
1983-06-03 17:00:00 UTC,2445489.208333,29.5267,-94.1772,0094,-16.67,17.26,24.0000,316.0000
1983-06-03 17:30:00 UTC,2445489.229167,29.5267,-94.1772,0094,-16.73,18.58,25.0000,318.0000
1983-06-03 18:00:00 UTC,2445489.250000,29.5267,-94.1772,0094,-16.07,19.15,25.0000,320.0000
1983-06-03 18:30:00 UTC,2445489.270833,29.5267,-94.1772,0094,-15.28,21.03,26.0000,324.0000
1983-06-03 19:00:00 UTC,2445489.291667,29.5267,-94.1772,0094,-12.72,20.35,24.0000,328.0000
1983-06-03 19:30:00 UTC,2445489.312500,29.5267,-94.1772,0094,-8.54,19.18,21.0000,336.0000
1983-06-03 20:00:00 UTC,2445489.333333,29.5267,-94.1772,0094,-5.24,18.26,19.0000,344.0000
1983-06-03 20:30:00 UTC,2445489.354167,29.5267,-94.1772,0094,-2.50,15.80,16.0000,351.0000
1983-06-03 21:00:00 UTC,2445489.375000,29.5267,-94.1772,0094,0.24,14.00,14.0000,1.0000
1983-06-03 21:30:00 UTC,2445489.395833,29.5267,-94.1772,0094,3.58,12.50,13.0000,16.0000
1983-06-03 22:00:00 UTC,2445489.416667,29.5267,-94.1772,0094,6.00,10.39,12.0000,30.0000
1983-06-03 22:30:00 UTC,2445489.437500,29.5267,-94.1772,0094,8.53,9.81,13.0000,41.0000
1983-06-03 23:00:00 UTC,2445489.458333,29.5267,-94.1772,0094,10.57,9.18,14.0000,49.0000
1983-06-03 23:30:00 UTC,2445489.479167,29.5267,-94.1772,0094,12.44,8.39,15.0000,56.0000
1983-06-04 00:00:00 UTC,2445489.500000,29.5267,-94.1772,0094,13.24,7.04,15.0000,62.0000
1983-06-04 00:30:00 UTC,2445489.520833,29.5267,-94.1772,0094,12.89,5.47,14.0000,67.0000
1983-06-04 01:00:00 UTC,2445489.541667,29.5267,-94.1772,0094,12.29,4.23,13.0000,71.0000
1983-06-04 01:30:00 UTC,2445489.562500,29.5267,-94.1772,0094,11.59,3.11,12.0000,75.0000
1983-06-04 02:00:00 UTC,2445489.583333,29.5267,-94.1772,0094,10.80,2.10,11.0000,79.0000
1983-06-04 02:30:00 UTC,2445489.604167,29.5267,-94.1772,0094,9.88,1.56,10.0000,81.0000
1983-06-04 03:00:00 UTC,2445489.625000,29.5267,-94.1772,0094,9.90,1.39,10.0000,82.0000
1983-06-04 03:30:00 UTC,2445489.645833,29.5267,-94.1772,0094,9.96,0.87,10.0000,85.0000
1983-06-04 04:00:00 UTC,2445489.666667,29.5267,-94.1772,0094,6.99,0.37,7.0000,87.0000
1983-06-04 04:30:00 UTC,2445489.687500,29.5267,-94.1772,0094,6.00,-0.10,6.0000,91.0000
1983-06-04 05:00:00 UTC,2445489.708333,29.5267,-94.1772,0094,3.83,-1.17,4.0000,107.0000
1983-06-04 05:30:00 UTC,2445489.729167,29.5267,-94.1772,0094,2.78,-2.88,4.0000,136.0000
1983-06-04 06:00:00 UTC,2445489.750000,29.5267,-94.1772,0094,0.73,-2.91,3.0000,166.0000
1983-06-04 06:30:00 UTC,2445489.770833,29.5267,-94.1772,0094,-0.73,-2.91,3.0000,194.0000
1983-06-04 07:00:00 UTC,2445489.791667,29.5267,-94.1772,0094,-1.93,-2.30,3.0000,220.0000
1983-06-04 07:30:00 UTC,2445489.812500,29.5267,-94.1772,0094,-3.65,-1.63,4.0000,246.0000
1983-06-04 08:00:00 UTC,2445489.833333,29.5267,-94.1772,0094,-5.00,0.17,5.0000,272.0000
1983-06-04 08:30:00 UTC,2445489.854167,29.5267,-94.1772,0094,-5.56,2.25,6.0000,292.0000
1983-06-04 09:00:00 UTC,2445489.875000,29.5267,-94.1772,0094,-4.39,4.09,6.0000,313.0000
1983-06-04 09:30:00 UTC,2445489.895833,29.5267,-94.1772,0094,-2.15,5.60,6.0000,339.0000
1983-06-04 10:00:00 UTC,2445489.916667,29.5267,-94.1772,0094,-0.37,6.99,7.0000,357.0000
1983-06-04 10:30:00 UTC,2445489.937500,29.5267,-94.1772,0094,0.97,7.94,8.0000,7.0000
1983-06-04 11:00:00 UTC,2445489.958333,29.5267,-94.1772,0094,1.66,7.83,8.0000,12.0000
1983-06-04 11:30:00 UTC,2445489.979167,29.5267,-94.1772,0094,1.93,6.73,7.0000,16.0000
1983-06-04 12:00:00 UTC,2445490.000000,29.5267,-94.1772,0094,1.65,5.77,6.0000,16.0000
1983-06-04 12:30:00 UTC,2445490.020833,29.5267,-94.1772,0094,1.25,5.87,6.0000,12.0000
1983-06-04 13:00:00 UTC,2445490.041667,29.5267,-94.1772,0094,0.85,6.95,7.0000,7.0000
1983-06-04 13:30:00 UTC,2445490.062500,29.5267,-94.1772,0094,0.37,6.99,7.0000,3.0000
1983-06-04 14:00:00 UTC,2445490.083333,29.5267,-94.1772,0094,0.00,7.00,7.0000,0.0000
1983-06-04 14:30:00 UTC,2445490.104167,29.5267,-94.1772,0094,-0.31,5.99,6.0000,357.0000
1983-06-04 15:00:00 UTC,2445490.125000,29.5267,-94.1772,0094,-0.87,4.92,5.0000,350.0000
1983-06-04 15:30:00 UTC,2445490.145833,29.5267,-94.1772,0094,-1.37,3.76,4.0000,340.0000
1983-06-04 16:00:00 UTC,2445490.166667,29.5267,-94.1772,0094,-1.72,2.46,3.0000,325.0000
1983-06-04 16:30:00 UTC,2445490.187500,29.5267,-94.1772,0094,-2.74,1.22,3.0000,294.0000
1983-06-04 17:00:00 UTC,2445490.208333,29.5267,-94.1772,0094,-3.97,0.49,4.0000,277.0000
1983-06-04 17:30:00 UTC,2445490.229167,29.5267,-94.1772,0094,-5.00,-0.17,5.0000,268.0000
1983-06-04 18:00:00 UTC,2445490.250000,29.5267,-94.1772,0094,-5.93,-0.94,6.0000,261.0000
1983-06-04 18:30:00 UTC,2445490.270833,29.5267,-94.1772,0094,-4.91,-0.95,5.0000,259.0000
1983-06-04 19:00:00 UTC,2445490.291667,29.5267,-94.1772,0094,-3.93,-0.76,4.0000,259.0000
1983-06-04 19:30:00 UTC,2445490.312500,29.5267,-94.1772,0094,-2.93,-0.62,3.0000,258.0000
1983-06-04 20:00:00 UTC,2445490.333333,29.5267,-94.1772,0094,-2.00,-0.10,2.0000,267.0000
1983-06-04 20:30:00 UTC,2445490.354167,29.5267,-94.1772,0094,-1.60,1.20,2.0000,307.0000
1983-06-04 21:00:00 UTC,2445490.375000,29.5267,-94.1772,0094,-0.72,1.87,2.0000,339.0000
1983-06-04 21:30:00 UTC,2445490.395833,29.5267,-94.1772,0094,-0.37,2.98,3.0000,353.0000
1983-06-04 22:00:00 UTC,2445490.416667,29.5267,-94.1772,0094,0.10,3.00,3.0000,2.0000
1983-06-04 22:30:00 UTC,2445490.437500,29.5267,-94.1772,0094,0.76,3.93,4.0000,11.0000
1983-06-04 23:00:00 UTC,2445490.458333,29.5267,-94.1772,0094,2.05,5.64,6.0000,20.0000
1983-06-04 23:30:00 UTC,2445490.479167,29.5267,-94.1772,0094,3.51,7.19,8.0000,26.0000
1983-06-05 00:00:00 UTC,2445490.500000,29.5267,-94.1772,0094,4.36,7.87,9.0000,29.0000
1983-06-05 00:30:00 UTC,2445490.520833,29.5267,-94.1772,0094,4.77,7.63,9.0000,32.0000
1983-06-05 01:00:00 UTC,2445490.541667,29.5267,-94.1772,0094,5.59,8.29,10.0000,34.0000
1983-06-05 01:30:00 UTC,2445490.562500,29.5267,-94.1772,0094,6.47,8.90,11.0000,36.0000
1983-06-05 02:00:00 UTC,2445490.583333,29.5267,-94.1772,0094,7.05,9.71,12.0000,36.0000
1983-06-05 02:30:00 UTC,2445490.604167,29.5267,-94.1772,0094,6.47,8.90,11.0000,36.0000
1983-06-05 03:00:00 UTC,2445490.625000,29.5267,-94.1772,0094,5.88,8.09,10.0000,36.0000
1983-06-05 03:30:00 UTC,2445490.645833,29.5267,-94.1772,0094,5.16,7.37,9.0000,35.0000
1983-06-05 04:00:00 UTC,2445490.666667,29.5267,-94.1772,0094,4.90,7.55,9.0000,33.0000
1983-06-05 04:30:00 UTC,2445490.687500,29.5267,-94.1772,0094,4.12,6.86,8.0000,31.0000
1983-06-05 05:00:00 UTC,2445490.708333,29.5267,-94.1772,0094,3.76,7.06,8.0000,28.0000
1983-06-05 05:30:00 UTC,2445490.729167,29.5267,-94.1772,0094,3.39,6.12,7.0000,29.0000
1983-06-05 06:00:00 UTC,2445490.750000,29.5267,-94.1772,0094,3.61,6.00,7.0000,31.0000
1983-06-05 06:30:00 UTC,2445490.770833,29.5267,-94.1772,0094,3.29,6.18,7.0000,28.0000
1983-06-05 07:00:00 UTC,2445490.791667,29.5267,-94.1772,0094,2.15,5.60,6.0000,21.0000
1983-06-05 07:30:00 UTC,2445490.812500,29.5267,-94.1772,0094,1.25,5.87,6.0000,12.0000
1983-06-05 08:00:00 UTC,2445490.833333,29.5267,-94.1772,0094,1.34,6.87,7.0000,11.0000
1983-06-05 08:30:00 UTC,2445490.854167,29.5267,-94.1772,0094,3.08,8.46,9.0000,20.0000
1983-06-05 09:00:00 UTC,2445490.875000,29.5267,-94.1772,0094,4.50,7.79,9.0000,30.0000
1983-06-05 09:30:00 UTC,2445490.895833,29.5267,-94.1772,0094,5.54,7.09,9.0000,38.0000
1983-06-05 10:00:00 UTC,2445490.916667,29.5267,-94.1772,0094,5.66,6.99,9.0000,39.0000
1983-06-05 10:30:00 UTC,2445490.937500,29.5267,-94.1772,0094,6.16,7.88,10.0000,38.0000
1983-06-05 11:00:00 UTC,2445490.958333,29.5267,-94.1772,0094,6.16,7.88,10.0000,38.0000
1983-06-05 11:30:00 UTC,2445490.979167,29.5267,-94.1772,0094,6.43,7.66,10.0000,40.0000
1983-06-05 12:00:00 UTC,2445491.000000,29.5267,-94.1772,0094,6.43,7.66,10.0000,40.0000
1983-06-05 12:30:00 UTC,2445491.020833,29.5267,-94.1772,0094,5.88,8.09,10.0000,36.0000
1983-06-05 13:00:00 UTC,2445491.041667,29.5267,-94.1772,0094,5.42,7.19,9.0000,37.0000
1983-06-05 13:30:00 UTC,2445491.062500,29.5267,-94.1772,0094,5.46,5.85,8.0000,43.0000
1983-06-05 14:00:00 UTC,2445491.083333,29.5267,-94.1772,0094,4.01,4.46,6.0000,42.0000
1983-06-05 14:30:00 UTC,2445491.104167,29.5267,-94.1772,0094,2.94,4.05,5.0000,36.0000
1983-06-05 15:00:00 UTC,2445491.125000,29.5267,-94.1772,0094,2.00,3.46,4.0000,30.0000
1983-06-05 15:30:00 UTC,2445491.145833,29.5267,-94.1772,0094,1.12,2.78,3.0000,22.0000
1983-06-05 16:00:00 UTC,2445491.166667,29.5267,-94.1772,0094,0.17,0.98,1.0000,10.0000
1983-06-05 16:30:00 UTC,2445491.187500,29.5267,-94.1772,0094,-0.00,0.00,0.0000,357.0000
1983-06-05 17:00:00 UTC,2445491.208333,29.5267,-94.1772,0094,0.00,-0.00,0.0000,152.0000
1983-06-05 17:30:00 UTC,2445491.229167,29.5267,-94.1772,0094,-0.59,-0.81,1.0000,216.0000
1983-06-05 18:00:00 UTC,2445491.250000,29.5267,-94.1772,0094,-1.23,-1.58,2.0000,218.0000
1983-06-05 18:30:00 UTC,2445491.270833,29.5267,-94.1772,0094,-2.41,-3.19,4.0000,217.0000
1983-06-05 19:00:00 UTC,2445491.291667,29.5267,-94.1772,0094,-2.12,-3.39,4.0000,212.0000
1983-06-05 19:30:00 UTC,2445491.312500,29.5267,-94.1772,0094,-2.00,-3.46,4.0000,210.0000
1983-06-05 20:00:00 UTC,2445491.333333,29.5267,-94.1772,0094,-1.75,-3.60,4.0000,206.0000
1983-06-05 20:30:00 UTC,2445491.354167,29.5267,-94.1772,0094,-0.78,-2.90,3.0000,195.0000
1983-06-05 21:00:00 UTC,2445491.375000,29.5267,-94.1772,0094,-0.24,-1.99,2.0000,187.0000
1983-06-05 21:30:00 UTC,2445491.395833,29.5267,-94.1772,0094,0.02,1.00,1.0000,1.0000
1983-06-05 22:00:00 UTC,2445491.416667,29.5267,-94.1772,0094,-0.98,-0.17,1.0000,260.0000
1983-06-05 22:30:00 UTC,2445491.437500,29.5267,-94.1772,0094,-0.89,0.45,1.0000,297.0000
1983-06-05 23:00:00 UTC,2445491.458333,29.5267,-94.1772,0094,-1.68,1.09,2.0000,303.0000
1983-06-05 23:30:00 UTC,2445491.479167,29.5267,-94.1772,0094,-2.29,3.28,4.0000,325.0000
1983-06-06 00:00:00 UTC,2445491.500000,29.5267,-94.1772,0094,-1.75,5.74,6.0000,343.0000
1983-06-06 00:30:00 UTC,2445491.520833,29.5267,-94.1772,0094,-0.73,6.96,7.0000,354.0000
1983-06-06 01:00:00 UTC,2445491.541667,29.5267,-94.1772,0094,0.47,8.99,9.0000,3.0000
1983-06-06 01:30:00 UTC,2445491.562500,29.5267,-94.1772,0094,2.25,9.74,10.0000,13.0000
1983-06-06 02:00:00 UTC,2445491.583333,29.5267,-94.1772,0094,3.08,8.46,9.0000,20.0000
1983-06-06 02:30:00 UTC,2445491.604167,29.5267,-94.1772,0094,3.51,7.19,8.0000,26.0000
1983-06-06 03:00:00 UTC,2445491.625000,29.5267,-94.1772,0094,3.91,5.80,7.0000,34.0000
1983-06-06 03:30:00 UTC,2445491.645833,29.5267,-94.1772,0094,3.54,3.54,5.0000,45.0000
1983-06-06 04:00:00 UTC,2445491.666667,29.5267,-94.1772,0094,3.19,2.41,4.0000,53.0000
1983-06-06 04:30:00 UTC,2445491.687500,29.5267,-94.1772,0094,4.41,2.35,5.0000,62.0000
1983-06-06 05:00:00 UTC,2445491.708333,29.5267,-94.1772,0094,4.81,1.38,5.0000,74.0000
1983-06-06 05:30:00 UTC,2445491.729167,29.5267,-94.1772,0094,5.98,0.52,6.0000,85.0000
1983-06-06 06:00:00 UTC,2445491.750000,29.5267,-94.1772,0094,6.87,-1.34,7.0000,101.0000
1983-06-06 06:30:00 UTC,2445491.770833,29.5267,-94.1772,0094,5.59,-4.21,7.0000,127.0000
1983-06-06 07:00:00 UTC,2445491.791667,29.5267,-94.1772,0094,4.11,-5.66,7.0000,144.0000
1983-06-06 07:30:00 UTC,2445491.812500,29.5267,-94.1772,0094,4.59,-5.28,7.0000,139.0000
1983-06-06 08:00:00 UTC,2445491.833333,29.5267,-94.1772,0094,5.95,-5.35,8.0000,132.0000
1983-06-06 08:30:00 UTC,2445491.854167,29.5267,-94.1772,0094,5.14,-6.13,8.0000,140.0000
1983-06-06 09:00:00 UTC,2445491.875000,29.5267,-94.1772,0094,3.80,-8.16,9.0000,155.0000
1983-06-06 09:30:00 UTC,2445491.895833,29.5267,-94.1772,0094,2.18,-8.73,9.0000,166.0000
1983-06-06 10:00:00 UTC,2445491.916667,29.5267,-94.1772,0094,0.31,-8.99,9.0000,178.0000
1983-06-06 10:30:00 UTC,2445491.937500,29.5267,-94.1772,0094,-2.25,-9.74,10.0000,193.0000
1983-06-06 11:00:00 UTC,2445491.958333,29.5267,-94.1772,0094,-4.99,-9.80,11.0000,207.0000
1983-06-06 11:30:00 UTC,2445491.979167,29.5267,-94.1772,0094,-7.22,-8.30,11.0000,221.0000
1983-06-06 12:00:00 UTC,2445492.000000,29.5267,-94.1772,0094,-6.89,-5.79,9.0000,230.0000
1983-06-06 12:30:00 UTC,2445492.020833,29.5267,-94.1772,0094,-5.66,-4.11,7.0000,234.0000
1983-06-06 13:00:00 UTC,2445492.041667,29.5267,-94.1772,0094,-3.63,-1.69,4.0000,245.0000
1983-06-06 13:30:00 UTC,2445492.062500,29.5267,-94.1772,0094,-2.94,0.57,3.0000,281.0000
1983-06-06 14:00:00 UTC,2445492.083333,29.5267,-94.1772,0094,-3.24,2.35,4.0000,306.0000
1983-06-06 14:30:00 UTC,2445492.104167,29.5267,-94.1772,0094,-4.50,5.36,7.0000,320.0000
1983-06-06 15:00:00 UTC,2445492.125000,29.5267,-94.1772,0094,-6.54,10.06,12.0000,327.0000
1983-06-06 15:30:00 UTC,2445492.145833,29.5267,-94.1772,0094,-6.10,11.48,13.0000,332.0000
1983-06-06 16:00:00 UTC,2445492.166667,29.5267,-94.1772,0094,-3.91,11.35,12.0000,341.0000
1983-06-06 16:30:00 UTC,2445492.187500,29.5267,-94.1772,0094,-0.17,10.00,10.0000,359.0000
1983-06-06 17:00:00 UTC,2445492.208333,29.5267,-94.1772,0094,3.26,9.46,10.0000,19.0000
1983-06-06 17:30:00 UTC,2445492.229167,29.5267,-94.1772,0094,6.16,7.88,10.0000,38.0000
1983-06-06 18:00:00 UTC,2445492.250000,29.5267,-94.1772,0094,6.93,4.00,8.0000,60.0000
1983-06-06 18:30:00 UTC,2445492.270833,29.5267,-94.1772,0094,7.97,0.70,8.0000,85.0000
1983-06-06 19:00:00 UTC,2445492.291667,29.5267,-94.1772,0094,8.61,-2.63,9.0000,107.0000
1983-06-06 19:30:00 UTC,2445492.312500,29.5267,-94.1772,0094,9.83,-6.88,12.0000,125.0000
1983-06-06 20:00:00 UTC,2445492.333333,29.5267,-94.1772,0094,8.87,-9.51,13.0000,137.0000
1983-06-06 20:30:00 UTC,2445492.354167,29.5267,-94.1772,0094,8.36,-9.96,13.0000,140.0000
1983-06-06 21:00:00 UTC,2445492.375000,29.5267,-94.1772,0094,9.00,-10.72,14.0000,140.0000
1983-06-06 21:30:00 UTC,2445492.395833,29.5267,-94.1772,0094,7.21,-12.00,14.0000,149.0000
1983-06-06 22:00:00 UTC,2445492.416667,29.5267,-94.1772,0094,4.39,-14.34,15.0000,163.0000
1983-06-06 22:30:00 UTC,2445492.437500,29.5267,-94.1772,0094,3.33,-15.65,16.0000,168.0000
1983-06-06 23:00:00 UTC,2445492.458333,29.5267,-94.1772,0094,2.67,-13.74,14.0000,169.0000
1983-06-06 23:30:00 UTC,2445492.479167,29.5267,-94.1772,0094,2.29,-11.78,12.0000,169.0000
1983-06-07 00:00:00 UTC,2445492.500000,29.5267,-94.1772,0094,0.70,-9.98,10.0000,176.0000
1983-06-07 00:30:00 UTC,2445492.520833,29.5267,-94.1772,0094,-3.58,-9.34,10.0000,201.0000
1983-06-07 01:00:00 UTC,2445492.541667,29.5267,-94.1772,0094,-10.23,-10.97,15.0000,223.0000
1983-06-07 01:30:00 UTC,2445492.562500,29.5267,-94.1772,0094,-16.55,-12.93,21.0000,232.0000
1983-06-07 02:00:00 UTC,2445492.583333,29.5267,-94.1772,0094,-21.03,-15.28,26.0000,234.0000
1983-06-07 02:30:00 UTC,2445492.604167,29.5267,-94.1772,0094,-22.36,-16.85,28.0000,233.0000
1983-06-07 03:00:00 UTC,2445492.625000,29.5267,-94.1772,0094,-19.92,-16.71,26.0000,230.0000
1983-06-07 03:30:00 UTC,2445492.645833,29.5267,-94.1772,0094,-16.26,-16.26,23.0000,225.0000
1983-06-07 04:00:00 UTC,2445492.666667,29.5267,-94.1772,0094,-16.67,-17.26,24.0000,224.0000
1983-06-07 04:30:00 UTC,2445492.687500,29.5267,-94.1772,0094,-19.32,-17.40,26.0000,228.0000
1983-06-07 05:00:00 UTC,2445492.708333,29.5267,-94.1772,0094,-19.97,-15.05,25.0000,233.0000
1983-06-07 05:30:00 UTC,2445492.729167,29.5267,-94.1772,0094,-18.37,-13.84,23.0000,233.0000
1983-06-07 06:00:00 UTC,2445492.750000,29.5267,-94.1772,0094,-16.77,-12.64,21.0000,233.0000
1983-06-07 06:30:00 UTC,2445492.770833,29.5267,-94.1772,0094,-17.61,-11.44,21.0000,237.0000
1983-06-07 07:00:00 UTC,2445492.791667,29.5267,-94.1772,0094,-20.31,-10.80,23.0000,242.0000
1983-06-07 07:30:00 UTC,2445492.812500,29.5267,-94.1772,0094,-23.18,-9.37,25.0000,248.0000
1983-06-07 08:00:00 UTC,2445492.833333,29.5267,-94.1772,0094,-23.38,-5.40,24.0000,257.0000
1983-06-07 08:30:00 UTC,2445492.854167,29.5267,-94.1772,0094,-22.97,-1.20,23.0000,267.0000
1983-06-07 09:00:00 UTC,2445492.875000,29.5267,-94.1772,0094,-22.99,0.80,23.0000,272.0000
1983-06-07 09:30:00 UTC,2445492.895833,29.5267,-94.1772,0094,-24.00,-0.00,24.0000,270.0000
1983-06-07 10:00:00 UTC,2445492.916667,29.5267,-94.1772,0094,-27.98,-0.98,28.0000,268.0000
1983-06-07 10:30:00 UTC,2445492.937500,29.5267,-94.1772,0094,-31.00,-0.54,31.0000,269.0000
1983-06-07 11:00:00 UTC,2445492.958333,29.5267,-94.1772,0094,-30.92,2.16,31.0000,274.0000
1983-06-07 11:30:00 UTC,2445492.979167,29.5267,-94.1772,0094,-27.28,6.30,28.0000,283.0000
1983-06-07 12:00:00 UTC,2445493.000000,29.5267,-94.1772,0094,-23.49,8.55,25.0000,290.0000